Location: Pasadena, ca
(34.1243°N, 118.1037°W)
Time: 21:43:20
(UTC-07:00)

N. Korean satellite - Pass Details

Date: 14 October 2017
Orbit: 459 x 517 km, 97.2° (Epoch: 20 October)

Event Time Altitude Azimuth Distance (km) Brightness Sun altitude
Rises 19:29:38 0° 188° (S) 2,556 10.3 -15.4°
Reaches altitude 10° 19:31:52 10° 198° (SSW) 1,668 9.5 -15.9°
Maximum altitude 19:35:05 31° 262° (W) 867 8.6 -16.5°
Drops below altitude 10° 19:38:17 10° 326° (NNW) 1,650 9.7 -17.2°
Sets 19:40:29 0° 337° (NNW) 2,523 10.5 -17.6°
